Satellite: RS-39 Catalog number: 38051 Epoch time: 14275.83592740 Element set: 979 Inclination: 051.6171 deg RA of node: 033.2045 deg Eccentricity: 0.0013356 Arg of perigee: 323.5407 deg Mean anomaly: 123.4378 deg Mean motion: 15.91988992 rev/day Decay rate: 6.44351e-03 rev/day^2 Epoch rev: 15102 Checksum: 319
Satellite: E-STAR Catalog number: 38079 Epoch time: 14275.50609770 Element set: 999 Inclination: 069.4438 deg RA of node: 065.3807 deg Eccentricity: 0.0301740 Arg of perigee: 199.1716 deg Mean anomaly: 220.2776 deg Mean motion: 15.27140924 rev/day Decay rate: 2.27365e-03 rev/day^2 Epoch rev: 13973 Checksum: 335
Satellite: GOLIAT Catalog number: 38085 Epoch time: 14275.48904221 Element set: 417 Inclination: 069.4482 deg RA of node: 075.3521 deg Eccentricity: 0.0333894 Arg of perigee: 203.7301 deg Mean anomaly: 154.8167 deg Mean motion: 15.19008507 rev/day Decay rate: 1.91040e-03 rev/day^2 Epoch rev: 13946 Checksum: 299
Satellite: HORYU-2 Catalog number: 38340 Epoch time: 14275.71277929 Element set: 984 Inclination: 098.2720 deg RA of node: 234.8171 deg Eccentricity: 0.0011983 Arg of perigee: 189.1718 deg Mean anomaly: 170.9307 deg Mean motion: 14.72861584 rev/day Decay rate: 3.135e-05 rev/day^2 Epoch rev: 12762 Checksum: 327
Satellite: RS-40 Catalog number: 38735 Epoch time: 14275.05208157 Element set: 701 Inclination: 082.4753 deg RA of node: 220.9018 deg Eccentricity: 0.0017866 Arg of perigee: 025.5523 deg Mean anomaly: 334.6433 deg Mean motion: 12.42561125 rev/day Decay rate: 2.4e-07 rev/day^2 Epoch rev: 9885 Checksum: 288
Satellite: PROITERES Catalog number: 38756 Epoch time: 14275.77881894 Element set: 272 Inclination: 098.2271 deg RA of node: 005.8309 deg Eccentricity: 0.0013039 Arg of perigee: 045.6257 deg Mean anomaly: 314.6017 deg Mean motion: 14.75130355 rev/day Decay rate: 1.140e-05 rev/day^2 Epoch rev: 11104 Checksum: 287
Satellite: BEESAT-3 Catalog number: 39134 Epoch time: 14275.77708710 Element set: 727 Inclination: 064.8645 deg RA of node: 157.7523 deg Eccentricity: 0.0034653 Arg of perigee: 289.3238 deg Mean anomaly: 070.4170 deg Mean motion: 15.06493234 rev/day Decay rate: 1.1067e-04 rev/day^2 Epoch rev: 7986 Checksum: 323
Satellite: BEESAT-2 Catalog number: 39136 Epoch time: 14274.89305485 Element set: 708 Inclination: 064.8657 deg RA of node: 161.3848 deg Eccentricity: 0.0034473 Arg of perigee: 288.5863 deg Mean anomaly: 071.1517 deg Mean motion: 15.05701105 rev/day Decay rate: 9.055e-05 rev/day^2 Epoch rev: 7971 Checksum: 326
Satellite: LO-75 Catalog number: 39382 Epoch time: 14274.63488353 Element set: 436 Inclination: 040.4926 deg RA of node: 164.8522 deg Eccentricity: 0.0023514 Arg of perigee: 275.2570 deg Mean anomaly: 084.5699 deg Mean motion: 15.69559618 rev/day Decay rate: 4.41937e-03 rev/day^2 Epoch rev: 4860 Checksum: 353
Satellite: ZACUBE-1 Catalog number: 39417 Epoch time: 14274.84960995 Element set: 428 Inclination: 097.7620 deg RA of node: 341.7686 deg Eccentricity: 0.0060782 Arg of perigee: 257.4258 deg Mean anomaly: 102.0082 deg Mean motion: 14.78401443 rev/day Decay rate: 2.426e-05 rev/day^2 Epoch rev: 4645 Checksum: 320
Satellite: TRITON-1 Catalog number: 39427 Epoch time: 14274.76725437 Element set: 280 Inclination: 097.7532 deg RA of node: 335.3352 deg Eccentricity: 0.0116787 Arg of perigee: 271.6501 deg Mean anomaly: 087.1340 deg Mean motion: 14.65627599 rev/day Decay rate: 1.592e-05 rev/day^2 Epoch rev: 4600 Checksum: 317
Satellite: DELFIN3XT Catalog number: 39428 Epoch time: 14275.11137908 Element set: 284 Inclination: 097.7480 deg RA of node: 334.5650 deg Eccentricity: 0.0126388 Arg of perigee: 273.2362 deg Mean anomaly: 085.4427 deg Mean motion: 14.63683808 rev/day Decay rate: 2.730e-05 rev/day^2 Epoch rev: 4597 Checksum: 328
Satellite: GOMX-1 Catalog number: 39430 Epoch time: 14275.71971399 Element set: 873 Inclination: 097.7432 deg RA of node: 332.0359 deg Eccentricity: 0.0154984 Arg of perigee: 280.2866 deg Mean anomaly: 078.0913 deg Mean motion: 14.57064008 rev/day Decay rate: 1.558e-05 rev/day^2 Epoch rev: 4587 Checksum: 338
Satellite: MO-76 Catalog number: 39436 Epoch time: 14275.19973343 Element set: 360 Inclination: 097.7690 deg RA of node: 347.2708 deg Eccentricity: 0.0023947 Arg of perigee: 252.1901 deg Mean anomaly: 107.6983 deg Mean motion: 14.92489047 rev/day Decay rate: 2.4386e-04 rev/day^2 Epoch rev: 4682 Checksum: 352
Satellite: LO-74 Catalog number: 39440 Epoch time: 14275.04051213 Element set: 275 Inclination: 097.7572 deg RA of node: 339.4293 deg Eccentricity: 0.0082655 Arg of perigee: 261.4648 deg Mean anomaly: 097.7176 deg Mean motion: 14.73325220 rev/day Decay rate: 2.023e-05 rev/day^2 Epoch rev: 4631 Checksum: 303
Satellite: PUCPSAT-1 Catalog number: 39442 Epoch time: 14275.00949655 Element set: 274 Inclination: 097.7724 deg RA of node: 345.8485 deg Eccentricity: 0.0033021 Arg of perigee: 254.6650 deg Mean anomaly: 105.0971 deg Mean motion: 14.86535549 rev/day Decay rate: 3.775e-05 rev/day^2 Epoch rev: 4549 Checksum: 329
Satellite: SHINAISAT Catalog number: 39572 Epoch time: 14275.16382605 Element set: 326 Inclination: 064.9955 deg RA of node: 028.7058 deg Eccentricity: 0.0021838 Arg of perigee: 282.8831 deg Mean anomaly: 077.0094 deg Mean motion: 15.83011711 rev/day Decay rate: 1.74778e-03 rev/day^2 Epoch rev: 3395 Checksum: 324
Satellite: TEIKYOSAT Catalog number: 39576 Epoch time: 14275.85123470 Element set: 357 Inclination: 065.0024 deg RA of node: 021.5605 deg Eccentricity: 0.0021813 Arg of perigee: 288.5970 deg Mean anomaly: 071.2817 deg Mean motion: 15.96101180 rev/day Decay rate: 3.76292e-03 rev/day^2 Epoch rev: 3415 Checksum: 290
Satellite: CO-77 Catalog number: 39577 Epoch time: 14244.78324653 Element set: 379 Inclination: 064.9920 deg RA of node: 123.7668 deg Eccentricity: 0.0014904 Arg of perigee: 269.7208 deg Mean anomaly: 091.1897 deg Mean motion: 16.43552757 rev/day Decay rate: 1.0543803e-01 rev/day^2 Epoch rev: 2938 Checksum: 363
Satellite: SPROUT Catalog number: 39770 Epoch time: 14275.09947881 Element set: 149 Inclination: 097.8722 deg RA of node: 010.6274 deg Eccentricity: 0.0009277 Arg of perigee: 333.5289 deg Mean anomaly: 026.5478 deg Mean motion: 14.82819159 rev/day Decay rate: 2.338e-05 rev/day^2 Epoch rev: 1938 Checksum: 343
Satellite: POPSAT-HIP1 Catalog number: 40028 Epoch time: 14275.74559290 Element set: 323 Inclination: 097.9720 deg RA of node: 170.5842 deg Eccentricity: 0.0013580 Arg of perigee: 309.8532 deg Mean anomaly: 050.1505 deg Mean motion: 14.85374333 rev/day Decay rate: 3.303e-05 rev/day^2 Epoch rev: 1554 Checksum: 281
Satellite: EO-80 Catalog number: 40032 Epoch time: 14275.69438863 Element set: 313 Inclination: 097.9714 deg RA of node: 170.4465 deg Eccentricity: 0.0011821 Arg of perigee: 306.8541 deg Mean anomaly: 053.1613 deg Mean motion: 14.85142990 rev/day Decay rate: 3.381e-05 rev/day^2 Epoch rev: 1554 Checksum: 295
Satellite: VELOX-1 Catalog number: 40057 Epoch time: 14275.71290814 Element set: 310 Inclination: 098.2432 deg RA of node: 344.5159 deg Eccentricity: 0.0011681 Arg of perigee: 348.8377 deg Mean anomaly: 011.2579 deg Mean motion: 14.74241794 rev/day Decay rate: 2.955e-05 rev/day^2 Epoch rev: 1392 Checksum: 301
Satellite: DAURIA DX 1 Catalog number: 40071 Epoch time: 14275.88784983 Element set: 282 Inclination: 098.3924 deg RA of node: 331.3634 deg Eccentricity: 0.0008888 Arg of perigee: 355.2724 deg Mean anomaly: 004.8405 deg Mean motion: 14.79632874 rev/day Decay rate: 1.441e-05 rev/day^2 Epoch rev: 1273 Checksum: 320
Satellite: UKUBE-1 Catalog number: 40074 Epoch time: 14275.83522356 Element set: 284 Inclination: 098.3936 deg RA of node: 331.4445 deg Eccentricity: 0.0005391 Arg of perigee: 011.3983 deg Mean anomaly: 348.7375 deg Mean motion: 14.80622586 rev/day Decay rate: 2.956e-05 rev/day^2 Epoch rev: 1273 Checksum: 311
Satellite: CHASQUI-1 Catalog number: 40117 Epoch time: 14275.87769066 Element set: 159 Inclination: 051.6477 deg RA of node: 285.1108 deg Eccentricity: 0.0004131 Arg of perigee: 124.0342 deg Mean anomaly: 300.3996 deg Mean motion: 15.55366543 rev/day Decay rate: 9.0653e-04 rev/day^2 Epoch rev: 701 Checksum: 289
/EX